Погода в Истье

Россия / Калужская область     55°07′44″N   36°50′49″E
темп.,
°C
ветер,
м/с
пор.,
м/с
влажн.,
%
обл.,
%
осадки,
мм/ч
давл.,
гПа
погр.,
м
7 марта, вс
вс700:00−11юз389223 0.0 1013197
03:00−9юз5138647 0.0 1010511
06:00−7юз71491100 0.2 1005862
09:00−5юз81691100 0.9 10001134
12:00−2юз81592100 1.4 9961172
15:00−1зсз61095100 3.2 994857
18:00−4з3889100 1.5 994558
21:00−5з6148294 1.6 9961000
8 марта, пн
пн800:00−9зюз3108922 0.0 997234
03:00−8зюз4118960 0.0 997479
06:00−7з51291100 0.2 996910
09:00−8зсз61183100 0.5 998960
12:00−6сз5879100 0.1 1001938
15:00−5сз5778100 0.1 10041084
18:00−8сз368688 0.1 1006143
21:00−11ссз369450 0.1 1009138
9 марта, вт
вт900:00−13ссз369625 0.0 1011163
03:00−14ссз369647 0.0 1013177
06:00−16ссз379667 0.0 1015190
09:00−15ссз379052 0.0 1017380
12:00−12ссз358087 0.0 1018690
15:00−11сз467894 0.1 1019909
18:00−13ссз3686100 0.0 1020265
21:00−17ссз249483 0.1 102389
10 марта, ср
ср1000:00−20ссв23970 0.0 102558
03:00−22с22950 0.0 102620
06:00−22ссв129543 0.0 102720
09:00−19вюв118471 0.0 1028155
12:00−14ююв1269100 0.0 1028387
15:00−11юв2263100 0.0 1027562
18:00−14юв128079 0.0 102721
21:00−17вюв228939 0.0 102820
11 марта, чт
чт1100:00−18вюв228916 0.0 102921
03:00−19вюв238937 0.0 102943
06:00−20вюв239048 0.0 102967
09:00−17юв358464 0.0 1029189
12:00−11юв36859 0.0 1028413
15:00−8ююв468549 0.0 1027526
18:00−10ююв3794100 0.1 1026288
21:00−12ююв489699 0.1 1026222